TimeEDT,TemperatureF,Dew PointF,Humidity,Sea Level PressureIn,VisibilityMPH,Wind Direction,Wind SpeedMPH,Gust SpeedMPH,PrecipitationIn,Events,Conditions,WindDirDegrees,DateUTC
12:54 AM,45.0,28.9,53,30.15,10.0,North,6.9,-,N/A,,Clear,350,2014-04-06 04:54:00
1:54 AM,43.0,28.9,58,30.17,10.0,NNW,5.8,-,N/A,,Clear,340,2014-04-06 05:54:00
2:54 AM,42.1,27.0,55,30.17,10.0,North,4.6,-,N/A,,Clear,360,2014-04-06 06:54:00
3:54 AM,41.0,27.0,57,30.17,10.0,Calm,Calm,-,N/A,,Clear,0,2014-04-06 07:54:00
4:54 AM,37.0,28.0,70,30.18,10.0,Calm,Calm,-,N/A,,Clear,0,2014-04-06 08:54:00
5:54 AM,34.0,27.0,75,30.21,10.0,Calm,Calm,-,N/A,,Clear,0,2014-04-06 09:54:00
6:54 AM,34.0,27.0,75,30.22,10.0,NNW,4.6,-,N/A,,Clear,340,2014-04-06 10:54:00
7:54 AM,41.0,28.0,60,30.25,10.0,North,4.6,-,N/A,,Clear,350,2014-04-06 11:54:00
8:54 AM,45.0,26.1,48,30.25,10.0,NNE,13.8,17.3,N/A,,Clear,30,2014-04-06 12:54:00
9:54 AM,48.0,25.0,41,30.26,10.0,North,10.4,-,N/A,,Clear,10,2014-04-06 13:54:00
10:54 AM,52.0,25.0,35,30.25,10.0,NNE,8.1,16.1,N/A,,Clear,30,2014-04-06 14:54:00
11:54 AM,54.0,19.9,26,30.25,10.0,East,8.1,-,N/A,,Clear,80,2014-04-06 15:54:00
12:54 PM,57.0,21.0,25,30.25,10.0,Variable,4.6,-,N/A,,Clear,0,2014-04-06 16:54:00
1:54 PM,55.9,19.9,25,30.22,10.0,Calm,Calm,-,N/A,,Clear,0,2014-04-06 17:54:00
2:54 PM,60.1,19.9,21,30.21,10.0,SSW,3.5,-,N/A,,Clear,200,2014-04-06 18:54:00
3:54 PM,59.0,24.1,26,30.18,10.0,SSE,9.2,-,N/A,,Clear,160,2014-04-06 19:54:00
4:54 PM,55.0,24.1,30,30.18,10.0,SSE,10.4,-,N/A,,Clear,150,2014-04-06 20:54:00
5:54 PM,53.1,21.9,30,30.20,10.0,SSE,9.2,-,N/A,,Clear,150,2014-04-06 21:54:00
6:54 PM,48.9,23.0,36,30.22,10.0,SE,8.1,-,N/A,,Clear,130,2014-04-06 22:54:00
7:54 PM,45.0,27.0,49,30.24,10.0,SSE,5.8,-,N/A,,Clear,160,2014-04-06 23:54:00
8:54 PM,43.0,28.0,56,30.24,10.0,Calm,Calm,-,N/A,,Clear,0,2014-04-07 00:54:00
9:54 PM,42.1,30.0,62,30.25,10.0,Calm,Calm,-,N/A,,Clear,0,2014-04-07 01:54:00
10:54 PM,39.0,30.0,70,30.23,10.0,Calm,Calm,-,N/A,,Clear,0,2014-04-07 02:54:00
11:54 PM,36.0,30.0,79,30.22,10.0,Calm,Calm,-,N/A,,Clear,0,2014-04-07 03:54:00